Regional Weather Roundup
Issued by NWS

Home | Current Version | Previous Version | Graphics & Text | Print | Product List | Glossary On
Versions: 1 2 3 4 5 6 7 8 9 10 11 12 13 14 15 16 17 18 19 20 21 22 23 24 25 26 27
000
ASUS45 KTFX 121310
RWRMT
MONTANA REGIONAL WEATHER ROUNDUP
NATIONAL WEATHER SERVICE GREAT FALLS MT
600 AM MST TUE DEC 12 2017

NOTE: "FAIR" INDICATES FEW OR NO CLOUDS BELOW 12000 FEET WITH NO
SIGNIFICANT WEATHER AND/OR OBSTRUCTIONS TO VISIBILITY.

MTZ001>007-043-121400-
WEST OF THE DIVIDE

CITY           SKY/WX    TMP DP  RH WIND       PRES   REMARKS
KALISPELL      CLOUDY    22  22 100 NW3       30.52F FOG
MISSOULA       LGT SNOW  17  13  84 N3        30.56F VSB 3/4
BUTTE          FAIR       6   1  80 E3        30.44S
MULLAN PASS    FAIR      32  32 100 S6        30.39F WCI  26
ANACONDA         N/A     10   5  79 SW5       30.44F
DEER LODGE       N/A      9   7  92 CALM      30.47F
EUREKA           N/A     21  18  86 MISG      30.52F
HAMILTON         N/A     12   9  85 CALM      30.52F VSB 1/4
LIBBY            N/A     23  19  86 CALM      30.53S
PLAINS           N/A     25  17  71 SE5       30.51F
RONAN            N/A     24  21  88 SW3       30.51F
$$

MTZ008-052>055-121400-
SOUTHWEST MONTANA

CITY           SKY/WX    TMP DP  RH WIND       PRES   REMARKS
BOZEMAN        FAIR      10   5  80 S5        30.42S
DILLON         FAIR      23  10  57 SW10      30.43F WCI  12
W YELLOWSTONE  MOCLDY    -6  -9  84 CALM      30.55F
ENNIS          CLOUDY    28  12  50 S12       30.46S WCI  18
THREE FORKS      N/A      5   0  80 S2        30.36S
TWIN BRIDGES     N/A     22   7  52 CALM      30.37F
$$

MTZ009-010-012-014-046-048-049-054-121400-
EAST SLOPES AND CENTRAL MONTANA

CITY           SKY/WX    TMP DP  RH WIND       PRES   REMARKS
CUT BANK       FAIR      50  -6   9 W36G51    30.11F
GREAT FALLS    FAIR      43   5  20 SW21      30.19F
MALMSTROM AFB  FAIR      42   7  23 SW21      30.18F
HELENA         FAIR      12  10  92 CALM      30.41F
BOWMANS CRNR   FAIR      34  11  38 S24       30.21F WCI  21
CHOTEAU          N/A     45  -6  12 SE7G13    30.18S
FAIRFIELD      FAIR      38   7  27 S17       30.18F WCI  29
POWER          FAIR      35   5  28 SW7       30.18F WCI  29
RAYNESFORD     FAIR      48   2  15 SE3       30.19F
ULM            FAIR      36   8  31 SW9       30.22F WCI  29
$$

MTZ011-013-016-021-045-047-050-051-121400-
NORTH CENTRAL MONTANA

CITY           SKY/WX    TMP DP  RH WIND       PRES   REMARKS
HAVRE          FAIR      31  16  54 SW15      30.11F WCI  20
LEWISTOWN      FAIR      37  19  48 S5        30.19F
N BAR RANCH    FAIR      46  16  29 NW10      30.19F
CHINOOK          N/A     18  16  93 CALM      30.10F
DENTON         FAIR      41  13  32 MISG      30.13F
GEYSER         FAIR      47   5  18 W15G22    30.17F
GRASS RANGE    FAIR      47  17  30 W23       30.11F
STANFORD       FAIR      48   5  17 W9        30.18F
WINIFRED       FAIR      44  13  27 W10       30.15F
$$

MTZ017>020-022>027-061-062-121400-
NORTHEAST MONTANA

CITY           SKY/WX    TMP DP  RH WIND       PRES   REMARKS
GLASGOW        FAIR      23  18  81 N6        30.09F WCI  16
GLENDIVE       FAIR      22  19  89 S9        30.11F WCI  12
JORDAN           N/A     26  19  74 W5        30.12F
SIDNEY         FAIR      23  21  92 S7        30.09F WCI  15
WOLF POINT     FAIR      24  21  88 W8        30.09F WCI  15
MALTA          CLEAR     19  16  86 W6        30.10F WCI  11
PLENTYWOOD       N/A     28  21  74 CALM      30.02F
POPLAR           N/A     23  19  86 CALM      30.09F
SCOBEY           N/A     24  13  63 CALM      30.02F
$$

MTZ028>42-056>058-121400-
SOUTHCENTRAL AND SOUTHEAST MONTANA

CITY           SKY/WX    TMP DP  RH WIND       PRES   REMARKS
BAKER          FAIR      25  20  81 W6        30.14F WCI  18
BILLINGS       FAIR      41  18  39 SW25      30.22F
LIVINGSTON     FAIR      43  17  35 W25G35    30.31F
MILES CITY     FAIR      24  19  81 S8        30.16F WCI  15
BIG TIMBER     CLEAR     43  12  28 SW25G32   30.29R
EKALAKA          N/A     36  15  42 SW7       30.11F WCI  30
FORSYTH          N/A     28  19  69 W5        30.16F
LAUREL           N/A     37  18  44 SW12      30.25F WCI  30
ROUNDUP          N/A     38  12  34 S14       30.08F WCI  30
$$

REGIONAL REPORTS...DAKOTAS

CITY           SKY/WX    TMP DP  RH WIND       PRES   REMARKS
WILLISTON      CLEAR     27  21  80 SW2       30.07F
MINOT          FAIR      30  24  78 SW8       29.99F WCI  22
DICKINSON      FAIR      27  22  81 W12       30.05F WCI  17
BEACH          FAIR      30  21  69 W15       30.12F WCI  19
CROSBY         FAIR      27  25  93 S14       30.00F WCI  15
TIOGA          FAIR      27  27 100 W10       30.03F WCI  17
WATFORD CITY   FAIR      27  25  93 SW14      30.05F WCI  15
BISMARCK       FAIR      26  24  92 SW5       30.11F
GRAND FORKS    CLOUDY    20  17  88 S9        30.07F WCI   9
FARGO          CLOUDY    18  14  84 S10       30.11F WCI   6
BUFFALO SD       N/A     28  20  71 W15       30.07F WCI  16
RAPID CITY     FAIR      23   8  52 CALM      30.19F
$$

REGIONAL REPORTS...WYOMING/IDAHO/WASHINGTON

CITY           SKY/WX    TMP DP  RH WIND       PRES   REMARKS
GILLETTE       FAIR      39  17  41 SW9       30.22F
SHERIDAN       FAIR      24  16  71 SE5       30.21F
BUFFALO WY     FAIR      48   3  15 SW3       30.24F
CODY           FAIR      21  15  78 CALM      30.33F
YELLOWSTONE LA   N/A      5   2  87 CALM      30.55F
IDAHO FALLS    FAIR      13  10  88 E3        30.55F
SALMON         CLOUDY    14  11  87 S3        30.68F FOG
BOISE          CLOUDY    24  21  88 N5        30.67S
SPOKANE        LGT SNOW  24  23  96 W6        30.56F VSB 1   WCI  17
$$

REGIONAL REPORTS...ALBERTA

CITY           SKY/WX    TMP DP  RH WIND       PRES   REMARKS
EDMONTON       CLEAR     36  25  64 SW8       29.86F WCI  29
CALGARY        MOCLDY    52  12  20 W5        30.02S
LETHBRIDGE     CLEAR     52  -4  10 W18G32    30.07F
MEDICINE HAT   CLEAR     41  14  33 SW17      30.01F
$$

REGIONAL REPORTS...SASKATCHEWAN

CITY           SKY/WX    TMP DP  RH WIND       PRES   REMARKS
SWIFT CURRENT  CLEAR     37  21  52 W14       29.96F WCI  29
REGINA         CLEAR     27  21  80 W6        29.93F WCI  20
SASKATOON      CLEAR     27  23  86 SW13      29.88F WCI  16
$$




USA.gov is the U.S. government's official web portal to all federal, state and local government web resources and services.